Location: Lombard
(41.8800°N, 88.0080°W)
Time: 05:35:56
(UTC-05:00)

Vanguard 2 Rocket - Pass Details

Date: 22 February 2024
Orbit: 555 x 3307 km, 32.9° (Epoch: 12 April)

Event Time Altitude Azimuth Distance (km) Brightness Sun altitude
Rises 14:47:56 0° 234° (SW) 4,457 11.7 26.0°
Reaches altitude 10° 14:50:33 10° 228° (SW) 3,780 12.0 25.7°
Maximum altitude 15:00:34 49° 157° (SSE) 2,755 9.8 24.3°
Drops below altitude 10° 15:16:51 10° 90° (E) 5,967 10.7 22.0°
Sets 15:22:13 0° 87° (E) 7,185 11.0 21.2°
